Wind_Speed
18 18 18 18 19 20 21 22 22 21 21 21 21 20 20 20 21 22 22 23 23 24 25 26 28 30 31 32 32 32 33 34 34 35 35 35 36 37 38 38 38 38 39 39
17 18 18 18 19 19 19 20 21 21 20 20 20 20 19 20 20 21 21 22 22 23 24 25 26 27 28 29 30 30 31 32 33 33 33 33 34 35 36 37 37 37 37 37
16 17 17 17 17 18 18 18 19 20 20 20 20 20 20 20 19 19 20 21 22 23 24 25 26 26 27 27 28 29 30 30 30 30 31 32 32 32 33 34 35 36 36 35
15 15 16 15 16 17 17 17 18 19 20 21 20 20 20 20 19 19 20 21 22 23 23 24 24 25 26 27 27 28 27 27 28 28 28 29 30 30 31 32 33 33 33 32
15 15 15 15 16 16 17 17 17 18 19 20 21 20 20 20 20 21 21 21 22 22 22 22 23 24 25 25 26 26 26 26 26 26 27 28 28 28 29 30 29 29 28 27
15 16 16 16 16 17 17 17 17 18 19 20 20 20 20 20 20 21 21 21 21 21 21 22 22 22 23 24 24 23 23 24 25 25 26 26 26 26 26 26 26 25 25 25
16 16 16 15 16 16 17 17 17 18 18 19 20 20 20 20 20 21 21 22 21 22 22 22 22 22 23 23 23 23 24 24 24 24 24 24 24 24 23 23 23 22 22 22
16 16 15 15 16 17 17 17 17 17 18 19 19 19 20 21 21 21 21 21 21 21 21 21 22 22 22 21 22 22 22 23 22 22 22 22 22 21 21 21 20 20 20 20
16 16 16 16 17 17 17 17 18 18 19 19 19 19 20 20 21 21 20 21 21 21 21 21 21 21 20 20 20 20 20 20 20 20 21 21 20 19 19 19 19 18 18 18
17 17 17 17 17 18 18 19 19 20 20 20 20 19 20 20 20 20 21 21 21 21 21 21 21 20 19 19 18 18 18 18 18 18 18 18 17 17 17 17 17 17 17 16
18 18 18 18 18 19 19 19 19 19 20 19 19 19 20 20 20 20 21 20 21 21 21 21 20 19 18 17 17 17 17 17 16 15 15 15 15 15 15 15 15 15 15 15
18 19 19 19 19 19 19 19 19 19 19 19 19 19 20 20 20 20 20 20 20 20 20 20 19 18 17 16 16 16 15 14 14 14 14 14 13 13 13 13 13 13 14 14
18 19 19 19 19 19 19 18 18 18 19 18 18 18 19 19 19 19 19 19 19 19 19 18 17 16 16 16 15 15 14 13 14 14 13 13 12 12 12 12 11 11 11 11
19 19 19 19 18 18 17 17 17 17 17 17 17 18 17 17 17 17 17 17 17 17 16 16 15 15 15 14 14 13 13 13 13 13 13 12 12 12 11 11 11 11 11 11
18 18 17 17 17 17 16 16 16 16 16 16 16 17 16 16 15 16 16 16 15 15 14 14 13 13 13 13 13 12 12 12 12 11 11 11 11 11 11 12 12 11 11 11
17 16 16 16 16 16 15 15 15 15 15 15 15 15 15 14 14 15 15 14 13 13 12 12 12 12 11 11 11 11 11 11 10 10 10 10 11 11 12 12 12 11 11 10
15 14 14 14 14 14 14 14 14 14 14 14 14 13 13 13 14 13 13 13 12 11 11 11 11 10 11 11 11 11 11 11 10 10 10 10 11 11 12 11 11 10 10 9
14 13 13 13 13 13 13 13 13 13 13 13 13 13 13 13 13 13 13 12 11 11 10 11 10 10 11 11 11 11 11 11 11 11 11 11 11 11 11 10 10 9 9 9
13 12 12 13 13 13 13 13 14 14 13 12 13 13 13 13 13 12 12 11 11 11 11 11 11 11 11 11 11 11 11 11 11 11 11 10 10 10 10 10 9 9 9 9
12 12 13 13 13 13 13 13 14 13 13 13 13 13 13 13 12 12 12 12 12 12 11 11 11 11 11 11 11 11 11 11 10 10 10 9 9 9 8 8 8 8 8 8
12 12 12 12 13 13 13 14 14 14 13 13 13 12 13 13 13 12 12 12 12 12 12 12 12 12 11 11 11 11 11 11 10 9 8 8 8 8 8 8 8 8 8 8
13 13 13 13 13 14 14 14 14 14 13 13 13 13 13 13 13 13 13 12 12 12 12 12 12 12 12 12 12 11 11 10 9 8 8 7 7 7 8 8 8 8 8 8
13 13 14 14 14 14 14 14 14 14 14 14 13 13 13 13 13 13 13 13 13 13 12 12 12 12 12 12 11 11 10 9 8 8 7 7 7 8 8 8 8 9 9 8
13 13 13 13 13 13 14 14 14 14 14 13 13 13 13 13 13 13 13 13 13 13 13 12 13 12 12 11 10 9 9 8 7 7 7 8 8 8 8 8 8 8 8 7
13 13 13 14 14 14 14 14 14 14 13 13 13 13 13 13 13 13 14 14 13 13 12 12 11 10 10 9 9 8 8 7 7 7 8 8 8 8 8 8 8 8 7 6
13 14 14 14 14 14 15 15 15 15 14 14 13 13 13 13 13 13 13 13 12 12 11 10 9 9 8 8 8 8 8 7 7 8 8 8 8 8 8 8 8 8 7 6
14 15 15 15 15 15 15 15 15 15 14 14 13 13 13 13 13 12 12 12 12 12 11 10 9 8 8 8 8 8 8 7 7 8 8 7 7 7 7 8 7 6 6 5
Wind_Direction
279 276 270 269 271 272 271 271 274 278 277 276 277 279 280 280 281 279 279 279 280 280 279 277 276 276 277 275 276 276 275 274 274 275 276 277 275 273 272 272 272 274 274 274
280 276 270 269 269 272 273 273 274 276 277 276 276 278 281 283 284 282 281 281 282 283 281 280 280 280 280 279 278 276 276 277 276 276 276 277 277 275 274 273 273 275 275 275
281 278 272 270 270 272 274 275 276 275 275 277 278 278 281 284 286 285 284 284 285 286 284 282 281 282 282 280 279 278 279 278 276 276 277 278 279 277 275 274 274 276 276 275
283 279 275 276 273 275 276 276 276 277 277 278 279 279 281 283 286 287 288 287 288 288 287 286 284 284 283 283 281 280 279 278 277 279 278 278 280 280 278 276 276 277 277 276
282 279 277 277 278 279 278 278 277 278 279 280 279 280 282 284 286 287 287 289 291 290 290 290 288 287 285 285 284 280 279 280 281 281 281 281 281 281 280 278 277 277 277 276
283 281 280 280 280 282 281 281 281 281 281 282 282 282 282 283 286 287 288 291 292 293 293 292 292 290 289 289 287 283 282 283 283 283 284 284 283 282 282 280 278 277 276 275
283 284 282 282 282 284 285 286 285 283 284 286 285 286 284 285 288 289 289 291 292 294 296 295 295 295 294 291 289 285 284 284 284 286 287 286 285 284 283 282 280 278 276 275
283 285 285 283 283 284 287 288 288 287 287 288 288 288 287 287 290 291 292 293 294 295 296 298 298 298 297 294 290 287 286 286 286 288 290 289 287 286 284 282 281 278 277 277
282 285 284 284 285 286 288 290 290 290 290 290 289 288 288 290 292 291 291 293 296 296 298 300 299 300 298 297 294 290 289 287 286 288 290 290 287 285 283 282 280 280 280 278
280 283 284 284 286 288 289 290 291 290 290 290 289 289 288 290 292 291 292 293 295 297 299 300 300 300 298 297 296 296 296 296 294 292 292 292 288 285 285 283 283 281 280 278
279 281 282 285 287 288 289 291 291 291 290 289 288 289 289 290 291 291 293 293 295 297 299 301 300 299 299 297 295 297 300 300 299 300 297 293 292 289 286 285 285 282 279 278
284 281 283 286 287 287 289 291 291 290 289 289 289 289 290 291 292 291 292 293 295 296 298 300 300 298 299 300 300 300 301 301 300 301 301 298 297 296 294 294 290 285 281 278
288 285 285 286 288 289 289 290 291 291 291 289 290 289 290 292 293 292 292 292 293 295 298 300 299 299 300 301 302 302 301 302 301 299 296 296 300 303 301 297 295 292 289 283
287 287 284 284 285 288 289 290 291 290 289 289 290 291 292 295 295 295 294 294 295 295 296 298 298 298 300 301 302 304 304 303 303 300 299 300 303 307 304 298 293 292 291 286
287 287 284 283 283 284 286 289 291 289 287 289 291 294 297 299 300 301 301 298 295 294 294 296 297 298 299 301 303 305 307 307 305 301 299 299 302 306 305 301 297 296 292 288
286 288 285 283 283 285 287 289 290 289 288 291 293 296 300 302 304 304 304 303 297 294 296 296 295 298 299 300 304 306 306 306 307 306 304 303 303 304 304 302 300 295 292 289
287 287 285 283 284 287 290 291 291 290 289 291 294 296 297 300 304 306 305 306 303 299 299 298 297 297 299 300 301 304 305 305 306 307 306 306 307 305 303 302 301 297 291 284
287 286 285 283 285 288 290 293 294 291 289 290 294 296 295 296 302 306 307 307 307 304 302 301 299 301 301 302 302 303 303 304 303 303 304 305 306 306 306 306 303 298 289 280
286 283 282 283 286 287 289 291 293 291 289 288 291 292 293 294 299 303 306 306 305 308 307 305 303 304 304 303 304 305 304 304 303 301 299 301 303 307 309 306 303 298 287 277
285 282 282 285 285 285 286 288 291 291 291 290 291 291 291 294 296 299 304 305 302 302 308 307 306 304 304 303 303 303 304 303 301 298 296 295 299 304 308 310 310 302 292 283
282 280 280 283 284 284 287 290 292 291 290 290 290 290 290 292 294 296 300 303 301 299 302 305 303 302 302 302 302 301 302 303 301 298 294 293 297 303 308 312 310 304 298 293
281 280 279 282 285 286 288 291 294 293 291 290 290 289 290 292 293 294 296 300 299 299 300 302 302 301 300 300 300 298 298 298 297 296 294 293 298 304 309 308 304 302 299 297
280 281 283 285 285 286 288 291 294 292 290 288 288 289 290 290 291 293 296 298 300 300 301 302 303 301 298 298 298 297 296 295 294 295 296 296 300 305 308 308 305 302 299 293
279 282 285 286 287 289 291 292 292 291 289 287 287 288 290 291 291 291 294 299 302 302 300 299 300 299 296 295 294 293 293 292 291 294 297 298 299 301 303 305 307 306 302 295
279 282 284 286 287 289 292 293 294 292 290 288 289 289 290 290 289 289 291 296 300 302 302 300 300 300 297 295 294 292 288 287 288 293 298 298 297 299 301 303 305 305 303 299
280 281 283 284 287 289 291 292 293 292 289 288 288 289 289 289 287 287 288 291 295 298 298 296 296 296 295 296 297 292 286 285 287 294 298 298 297 300 304 305 304 303 302 296
281 283 282 284 286 288 289 289 289 288 286 285 285 287 289 287 284 281 281 284 289 292 294 291 288 287 291 295 296 296 292 287 285 290 295 296 298 303 307 308 304 300 298 292
Height
5595 5594 5593 5593 5593 5592 5591 5591 5590 5590 5588 5587 5586 5584 5583 5582 5580 5579 5578 5576 5575 5574 5572 5571 5570 5568 5567 5566 5565 5563 5562 5560 5559 5557 5555 5553 5551 5550 5548 5547 5546 5545 5544 5543
5590 5589 5588 5588 5588 5587 5586 5585 5584 5583 5583 5581 5580 5578 5577 5576 5574 5573 5571 5570 5569 5567 5565 5563 5562 5560 5558 5557 5555 5554 5552 5550 5549 5547 5545 5543 5541 5539 5538 5537 5536 5534 5533 5532
5584 5583 5582 5583 5583 5582 5581 5580 5579 5578 5578 5575 5574 5573 5571 5570 5568 5567 5565 5564 5562 5560 5558 5556 5554 5552 5550 5548 5546 5545 5543 5541 5539 5537 5535 5533 5531 5529 5528 5527 5526 5525 5523 5522
5579 5579 5578 5580 5577 5576 5575 5575 5573 5572 5571 5569 5568 5567 5565 5564 5562 5561 5559 5558 5556 5553 5551 5549 5547 5544 5542 5540 5538 5536 5534 5532 5530 5528 5526 5524 5523 5521 5519 5518 5517 5515 5514 5513
5574 5573 5573 5574 5572 5571 5570 5570 5568 5566 5565 5564 5562 5561 5560 5558 5556 5555 5553 5551 5549 5547 5544 5542 5540 5537 5535 5533 5531 5529 5527 5524 5522 5520 5518 5516 5514 5513 5511 5509 5508 5507 5506 5505
5569 5568 5568 5569 5567 5565 5565 5564 5563 5561 5560 5558 5557 5556 5555 5553 5551 5549 5547 5545 5542 5540 5538 5535 5533 5530 5528 5525 5523 5521 5519 5517 5515 5513 5511 5509 5507 5505 5503 5502 5501 5500 5499 5498
5564 5563 5563 5563 5561 5561 5561 5560 5558 5556 5554 5553 5551 5550 5549 5547 5545 5543 5541 5538 5536 5534 5532 5529 5526 5523 5521 5518 5516 5514 5512 5510 5509 5506 5504 5502 5500 5498 5496 5495 5494 5493 5493 5491
5560 5559 5561 5558 5556 5556 5555 5553 5551 5550 5549 5547 5546 5544 5542 5541 5539 5537 5534 5532 5530 5527 5525 5523 5520 5517 5514 5512 5509 5507 5505 5503 5502 5499 5497 5495 5493 5491 5490 5489 5488 5487 5486 5484
5556 5557 5554 5552 5551 5550 5549 5547 5546 5545 5543 5541 5540 5538 5537 5535 5533 5531 5529 5526 5524 5522 5519 5517 5514 5511 5508 5505 5502 5500 5498 5497 5495 5493 5491 5489 5487 5486 5484 5483 5482 5481 5479 5478
5550 5550 5549 5547 5546 5545 5543 5542 5540 5539 5537 5536 5534 5533 5531 5529 5527 5525 5523 5521 5518 5516 5514 5511 5508 5505 5502 5499 5497 5495 5493 5491 5489 5487 5485 5483 5482 5480 5479 5478 5476 5475 5474 5473
5544 5544 5543 5542 5540 5539 5538 5536 5535 5533 5531 5530 5528 5527 5525 5523 5521 5519 5517 5515 5513 5511 5508 5505 5502 5499 5497 5494 5492 5490 5488 5486 5484 5482 5481 5479 5477 5476 5475 5473 5471 5471 5470 5469
5539 5538 5537 5536 5535 5534 5532 5531 5529 5528 5526 5524 5523 5521 5519 5517 5515 5513 5511 5509 5507 5505 5502 5500 5497 5495 5492 5489 5487 5486 5484 5482 5480 5479 5477 5475 5474 5472 5470 5469 5468 5466 5465 5464
5533 5532 5531 5530 5528 5527 5526 5525 5523 5521 5520 5519 5517 5515 5513 5511 5509 5507 5506 5504 5501 5499 5497 5494 5492 5490 5488 5485 5483 5481 5480 5478 5477 5475 5474 5472 5470 5469 5467 5466 5464 5463 5462 5461
5527 5526 5525 5524 5523 5521 5520 5519 5517 5516 5514 5513 5512 5510 5508 5506 5504 5502 5500 5498 5496 5494 5492 5490 5488 5486 5484 5482 5480 5478 5476 5474 5473 5472 5470 5469 5467 5466 5464 5463 5462 5461 5459 5458
5521 5520 5519 5518 5517 5516 5515 5513 5512 5511 5509 5508 5506 5505 5503 5501 5499 5497 5495 5493 5491 5490 5488 5486 5484 5482 5480 5479 5477 5475 5473 5471 5470 5468 5467 5466 5464 5463 5462 5461 5459 5458 5457 5456
5516 5515 5513 5512 5511 5510 5509 5508 5507 5506 5504 5503 5502 5500 5498 5497 5495 5493 5491 5489 5487 5486 5484 5482 5481 5479 5477 5476 5474 5472 5470 5469 5467 5466 5464 5463 5462 5460 5459 5458 5456 5455 5454 5453
5510 5509 5508 5508 5507 5506 5505 5503 5502 5501 5500 5499 5497 5496 5494 5493 5491 5490 5488 5486 5484 5482 5481 5479 5478 5476 5475 5473 5472 5470 5468 5466 5465 5463 5462 5461 5459 5457 5456 5455 5453 5452 5451 5450
5505 5504 5504 5503 5502 5501 5500 5499 5498 5497 5495 5494 5493 5492 5491 5489 5488 5486 5485 5483 5481 5480 5478 5476 5475 5473 5472 5471 5469 5467 5465 5464 5462 5461 5459 5458 5456 5455 5453 5452 5450 5449 5448 5447
5501 5500 5499 5498 5497 5497 5496 5495 5494 5492 5491 5490 5489 5488 5487 5486 5484 5483 5481 5480 5478 5477 5475 5473 5472 5470 5469 5467 5466 5464 5462 5461 5459 5458 5456 5455 5453 5452 5450 5449 5447 5446 5445 5444
5496 5496 5495 5494 5494 5493 5492 5491 5490 5488 5487 5486 5485 5484 5483 5482 5481 5480 5478 5477 5475 5473 5472 5470 5469 5467 5466 5464 5463 5461 5460 5458 5456 5455 5453 5452 5451 5449 5448 5446 5445 5443 5442 5441
5492 5492 5491 5490 5490 5489 5488 5486 5486 5485 5484 5483 5482 5481 5480 5478 5477 5476 5475 5473 5472 5470 5468 5467 5465 5464 5462 5461 5459 5458 5457 5455 5453 5452 5451 5450 5448 5447 5445 5444 5442 5441 5440 5439
5488 5488 5487 5486 5485 5485 5484 5482 5481 5480 5480 5479 5478 5477 5476 5475 5473 5472 5471 5470 5468 5466 5465 5463 5462 5460 5459 5457 5456 5455 5453 5452 5450 5449 5448 5447 5446 5444 5443 5441 5440 5439 5438 5437
5484 5483 5483 5482 5481 5481 5480 5479 5478 5477 5476 5475 5474 5473 5471 5470 5469 5469 5467 5466 5464 5463 5461 5460 5458 5457 5455 5454 5452 5451 5450 5448 5447 5446 5445 5444 5443 5442 5440 5439 5437 5436 5435 5434
5480 5479 5479 5478 5477 5477 5476 5475 5474 5473 5471 5471 5470 5469 5467 5466 5465 5464 5463 5462 5461 5459 5458 5456 5454 5453 5452 5450 5449 5448 5447 5446 5445 5444 5443 5442 5441 5439 5438 5437 5435 5434 5433 5431
5476 5475 5474 5474 5473 5472 5471 5470 5469 5468 5467 5466 5465 5464 5463 5462 5461 5460 5459 5458 5457 5455 5454 5452 5451 5449 5448 5447 5446 5445 5444 5443 5442 5442 5441 5440 5438 5437 5436 5434 5433 5432 5430 5429
5471 5470 5470 5469 5469 5468 5467 5466 5465 5464 5463 5462 5461 5460 5459 5458 5457 5456 5455 5454 5453 5451 5450 5449 5448 5446 5445 5445 5444 5443 5442 5441 5440 5439 5438 5437 5436 5435 5433 5432 5430 5429 5428 5427
5466 5465 5465 5464 5464 5463 5462 5461 5460 5459 5458 5457 5456 5455 5454 5453 5452 5452 5451 5450 5449 5448 5447 5446 5445 5444 5443 5442 5441 5440 5439 5438 5437 5437 5436 5435 5433 5432 5431 5430 5428 5427 5426 5426